Overview Statistics Trail Chart Weather Telemetry Raw packets
 

This is the latest recevied weather packets stored in our database for station/object SV9FBP-13. If no packets are shown the sender has not sent any weather packets the latest 10 day(s).

<< 19 20 21 22 23 24 25 >>
Time Temp. Humidity Pressure Rain* Wind** Luminosity Snow
1788205700 27.78° C 41% 1009.4 hPa 0 mm - - -
1788204797 27.22° C 42% 1009.6 hPa 0 mm - - -
1788203896 27.78° C 40% 1009.7 hPa 0 mm - - -
1788202993 27.78° C 37% 1009.6 hPa 0 mm - - -
1788202091 28.33° C 34% 1009.2 hPa 0 mm - - -
1788201188 28.33° C 36% 1009.4 hPa 0 mm - - -
1788200287 28.33° C 32% 1009.4 hPa 0 mm - - -
1788199385 28.33° C 37% 1009.1 hPa 0 mm - - -
1788198483 28.33° C 39% 1009.2 hPa 0 mm - - -
1788197581 28.33° C 40% 1009.2 hPa 0 mm - - -
1788196678 28.33° C 40% 1009 hPa 0 mm - - -
1788195776 28.89° C 40% 1009.3 hPa 0 mm - - -
1788194877 28.89° C 36% 1009 hPa 0 mm - - -
1788193972 29.44° C 33% 1009.1 hPa 0 mm - - -
1788193070 30° C 35% 1009 hPa 0 mm - - -
1788192168 31.11° C 32% 1009.1 hPa 0 mm - - -
1788191266 31.67° C 32% 1009.2 hPa 0 mm - - -
1788190363 32.22° C 32% 1008.9 hPa 0 mm - - -
1788189461 32.22° C 32% 1009.1 hPa 0 mm - - -
1788188559 32.78° C 31% 1009 hPa 0 mm - - -
1788187656 33.33° C 27% 1009 hPa 0 mm - - -
1788186755 32.78° C 27% 1009 hPa 0 mm - - -
1788185852 33.33° C 23% 1008.8 hPa 0 mm - - -
1788184950 33.33° C 25% 1008.8 hPa 0 mm - - -
1788184049 33.33° C 30% 1008.8 hPa 0 mm - - -

* Rain latest hour (hover to see other rain measurements)
** Current wind speed in m/s (hover to see current wind gust speed)